Location: *
(58.4167°N, 22.5000°E)
Time: 13:30:37
(UTC+00:00)

Cosmos 2369 Rocket - Pass Details

Date: 22 September 2019
Orbit: 830 x 851 km, 71.0° (Epoch: 18 October)

Event Time Altitude Azimuth Distance (km) Brightness Sun altitude
Exits shadow 23:41:25 18° 111° (ESE) 1,988 4.1 -29.4°
Maximum altitude 23:42:15 18° 100° (E) 1,959 4.2 -29.4°
Drops below altitude 10° 23:45:58 10° 59° (ENE) 2,476 5.3 -29.2°
Sets 23:49:08 0° 41° (NE) 3,412 6.5 -29.0°
